Boscobel, WI

4:35 AM CST on February 25, 2017 (GMT -0600)
Boscobel

Weather History for KOVS - January, 2014

Change the Weather History Date:

Tuesday, January 7, 2014

  Actual Average (KPDC) Record (KPDC)
Temperature  
Mean Temperature -4 °F -  
Max Temperature 6 °F 24 °F 51 °F (2003)
Min Temperature -14 °F 4 °F -25 °F (1971)
Degree Days  
Heating Degree Days 69    
Moisture  
Dew Point -16 °F    
Average Humidity 65    
Maximum Humidity 83    
Minimum Humidity 45    
Precipitation  
Precipitation 0.00 in - - ()
Sea Level Pressure  
Sea Level Pressure 30.30 in    
Wind  
Wind Speed 5 mph (SSW)    
Max Wind Speed 9 mph    
Max Gust Speed -    
Visibility 9 miles    
Events      
Averages and records for this station are not official NWS values.
T = Trace of Precipitation, MM = Missing Value Source: NWS Daily Summary

Daily Weather History Graph

Daily Weather History Graph

Search for Another Location

Airport or City:

Trip Planner

Search our weather history database for the weather conditions in past years. The results will help you decide how hot, cold, wet, or windy it might be!

Date:

Astronomy

Jan. 07, 2014 Rise Set
Actual Time 7:34 AM CST 4:44 PM CST
Civil Twilight 7:02 AM CST 5:16 PM CST
Nautical Twilight 6:26 AM CST 5:51 PM CST
Astronomical Twilight 5:52 AM CST 6:26 PM CST
Moon 11:10 AM CST (1/7) No Moon Set
Length of Visible Light 10h 13m
Length of Day
9h 09m
Waxing Crescent, 46% of the Moon is Illuminated
Jan 7
Waxing Crescent
Jan 7
First Quarter
Jan 15
Full
Jan 23
Last Quarter
Jan 30
New

Hourly Weather History & Observations

Time (CST) Temp. Windchill Dew Point Humidity Pressure Visibility Wind Dir Wind Speed Gust Speed Precip Events Conditions
12:53 AM -11.9 °F -27.3 °F -20.9 °F 64% 30.29 in 10.0 mi SW 6.9 mph - 0.00 in   Clear
1:53 AM -11.0 °F -26.2 °F -20.9 °F 62% 30.29 in 10.0 mi SW 6.9 mph - N/A   Clear
2:53 AM -11.9 °F -25.7 °F -20.9 °F 64% 30.29 in 10.0 mi SW 5.8 mph - N/A   Clear
3:53 AM -13.0 °F -31.3 °F -20.9 °F 68% 30.29 in 10.0 mi SW 9.2 mph - N/A   Clear
4:53 AM -14.1 °F -29.9 °F -20.9 °F 71% 30.30 in 10.0 mi SSW 6.9 mph - 0.00 in   Clear
5:53 AM -14.1 °F -29.9 °F -20.9 °F 71% 30.29 in 10.0 mi SW 6.9 mph - N/A   Clear
6:53 AM -14.1 °F -31.3 °F -20.9 °F 71% 30.30 in 10.0 mi SW 8.1 mph - N/A   Clear
7:53 AM -11.9 °F -25.7 °F -18.9 °F 71% 30.31 in 10.0 mi SSW 5.8 mph - N/A   Clear
8:53 AM -9.0 °F -25.2 °F -17.0 °F 68% 30.33 in 10.0 mi SW 8.1 mph - N/A   Clear
9:53 AM -6.0 °F - -16.1 °F 62% 30.32 in 10.0 mi Calm Calm - 0.00 in   Mostly Cloudy
10:53 AM -4.0 °F -19.0 °F -15.0 °F 59% 30.32 in 10.0 mi SSW 8.1 mph - 0.00 in   Overcast
11:53 AM -0.9 °F -11.0 °F -14.1 °F 54% 30.30 in 10.0 mi SW 4.6 mph - 0.00 in   Clear
12:53 PM 1.9 °F -9.2 °F -11.9 °F 52% 30.27 in 10.0 mi SSW 5.8 mph - 0.00 in   Clear
1:53 PM 3.9 °F -5.3 °F -11.9 °F 48% 30.23 in 10.0 mi SW 4.6 mph - 0.00 in   Clear
2:53 PM 6.1 °F -2.8 °F -11.0 °F 45% 30.24 in 10.0 mi SSW 4.6 mph - 0.00 in   Clear
3:53 PM 6.1 °F -4.3 °F -11.0 °F 45% 30.25 in 10.0 mi SSW 5.8 mph - N/A   Clear
4:53 PM 3.9 °F -3.4 °F -11.0 °F 50% 30.26 in 10.0 mi South 3.5 mph - N/A   Clear
5:53 PM 1.0 °F -8.7 °F -11.0 °F 57% 30.29 in 10.0 mi SSW 4.6 mph - N/A   Clear
6:53 PM -6.0 °F - -13.0 °F 72% 30.31 in 6.0 mi Calm Calm - N/A   Haze
7:53 PM -5.1 °F - -11.9 °F 72% 30.33 in 10.0 mi Calm Calm - N/A   Clear
8:53 PM -9.0 °F - -14.1 °F 79% 30.34 in 10.0 mi Calm Calm - N/A   Clear
9:53 PM -9.9 °F - -15.0 °F 78% 30.36 in 10.0 mi Calm Calm - N/A   Clear
10:08 PM -9.9 °F - -15.0 °F 78% 30.29 in 1.8 mi Calm Calm - N/A   Haze
10:13 PM -11.0 °F - -15.0 °F 83% 30.29 in 4.0 mi Calm Calm - N/A   Clear
10:53 PM -11.0 °F - -16.1 °F 78% 30.36 in 4.0 mi Calm Calm - N/A   Haze
11:53 PM -11.9 °F - -17.0 °F 78% 30.35 in 10.0 mi Calm Calm - N/A   Clear